Location: Unspecified
(0.0000°N, 0.0000°E)
Time: 06:13:23
(UTC+00:00)

SEV/FW4S - Visible Passes

Search period start: 17 September 2024 00:00
Search period end: 27 September 2024 00:00
Orbit: 1136 x 2419 km, 69.2° (Epoch: 16 September)

Date Brightness Start Highest point End Pass type
(mag) Time Alt. Az. Time Alt. Az. Time Alt. Az.
17 Sep ? 18:42:09 10° NE 18:47:48 14° ENE 18:48:56 13° ENE visible
17 Sep ? 20:40:44 10° NNW 20:51:15 61° N 20:51:15 61° N visible
17 Sep ? 22:53:11 10° WNW 22:53:35 11° WNW 22:53:35 11° WNW visible
18 Sep ? 19:05:14 10° NNE 19:15:39 27° ENE 19:16:53 26° ENE visible
18 Sep ? 21:08:30 10° NNW 21:19:13 54° WNW 21:19:13 54° WNW visible
19 Sep ? 19:30:46 10° N 19:43:19 46° ENE 19:45:05 43° E visible
19 Sep ? 21:37:16 10° NW 21:47:26 35° W 21:47:26 35° W visible
20 Sep ? 19:57:23 10° N 20:10:49 74° ENE 20:13:37 58° SE visible
20 Sep ? 22:07:44 10° WNW 22:15:39 19° WSW 22:16:01 19° WSW visible
21 Sep ? 18:22:57 10° NNE 18:31:59 21° ENE 18:40:01 10° ESE visible
21 Sep ? 20:24:51 10° NNW 20:38:07 72° WSW 20:42:43 43° S visible
22 Sep ? 18:47:53 10° N 18:59:44 37° ENE 19:09:44 10° SE visible
22 Sep ? 20:53:13 10° NW 21:05:14 43° WSW 21:13:16 17° SSW visible
23 Sep ? 19:14:09 10° N 19:27:19 62° ENE 19:38:01 10° SSE visible
23 Sep ? 21:22:55 10° NW 21:32:15 24° WSW 21:40:23 10° SSW visible
24 Sep ? 19:41:19 10° NNW 19:54:41 84° WSW 20:05:25 10° SSE visible
24 Sep ? 21:56:43 10° W 21:59:19 11° WSW 22:01:50 10° WSW visible
25 Sep ? 18:05:11 10° NNE 18:16:07 30° ENE 18:25:27 10° SE visible
25 Sep ? 20:09:20 10° NNW 20:21:50 52° WSW 20:32:02 10° S visible
26 Sep ? 18:31:03 10° N 18:43:45 51° ENE 18:54:09 10° SE visible
26 Sep ? 20:38:28 10° NW 20:48:51 30° WSW 20:57:42 10° SSW visible
